Location: London
(51.5166°N, 0.1046°W)
Time: 22:35:07
(UTC+01:00)

ISS - Visible Passes

Search period start: 21 October 2014 00:00
Search period end: 30 October 2014 23:00
Orbit: 413 x 416 km, 51.6° (Epoch: 21 October)

Date Brightness Start Highest point End Pass type
(mag) Time Alt. Az. Time Alt. Az. Time Alt. Az.
21 Oct -3.0 19:15:18 10° W 19:18:37 62° SSW 19:20:30 23° ESE visible
21 Oct -0.3 20:52:29 10° W 20:53:22 14° WSW 20:53:22 14° WSW visible
22 Oct -3.1 18:26:14 10° W 18:29:35 77° SSW 18:32:56 10° ESE visible
22 Oct -1.6 20:03:08 10° W 20:06:00 26° SSW 20:06:22 26° SSW visible
23 Oct -2.0 19:13:55 10° W 19:17:02 37° SSW 19:19:25 15° SE visible
24 Oct -2.5 18:24:43 10° W 18:27:59 50° SSW 18:31:14 10° SE visible
24 Oct -0.6 20:02:19 10° WSW 20:04:07 14° SW 20:05:26 12° SSW visible
25 Oct -0.9 19:12:37 10° W 19:15:09 20° SW 19:17:41 10° SSE visible
26 Oct -1.3 17:23:10 10° W 17:26:06 29° SSW 17:29:01 10° SSE visible
28 Oct -0.3 17:21:53 10° WSW 17:23:54 15° SW 17:25:56 10° S visible
